CW0630 Weather Reports


Display with metric or nautical units.
time (UTC)temp
F
wind
direction
speed
MPH
gust
MPH
rain 1hr
in
rain 24hr
in
rain mn
in
humidity
%
barometer
mb
20180620112011 73 352 0.0 3.0 0.00 0.56 0.00 99 1012.3
20180620111515 73 16 1.0 3.0 0.00 0.56 0.00 99 1012.1
20180620111017 73 347 0.0 3.0 0.00 0.56 0.00 99 1012.3
20180620110521 73 208 0.0 0.0 0.00 0.56 0.00 99 1012.4
20180620110024 73 179 0.0 0.0 0.00 0.56 0.00 99 1012.4
20180620105511 72 179 0.0 0.0 0.00 0.56 0.00 99 1012.3
20180620105010 72 179 0.0 0.0 0.00 0.56 0.00 99 1012.1
20180620104516 72 179 0.0 0.0 0.00 0.56 0.00 98 1012.1
20180620104019 72 179 0.0 0.0 0.00 0.56 0.00 99 1012.0
20180620103524 72 179 0.0 0.0 0.00 0.56 0.00 98 1012.0
20180620103009 72 179 0.0 0.0 0.00 0.56 0.00 98 1012.0
20180620102516 72 179 0.0 0.0 0.00 0.56 0.00 98 1012.0
20180620102015 72 179 0.0 0.0 0.00 0.56 0.00 98 1011.9
20180620101520 71 179 0.0 0.0 0.00 0.56 0.00 98 1012.0
20180620101023 71 179 0.0 0.0 0.00 0.56 0.00 98 1012.1
20180620100526 72 179 0.0 0.0 0.00 0.56 0.00 98 1011.9
20180620100008 71 313 0.0 0.0 0.00 0.56 0.00 98 1011.8
20180620095514 71 313 0.0 0.0 0.00 0.56 0.00 98 1011.8
20180620095012 72 314 0.0 0.0 0.00 0.56 0.00 98 1011.8
20180620094520 72 314 0.0 0.0 0.00 0.56 0.00 98 1011.8
20180620094020 72 314 0.0 0.0 0.00 0.56 0.00 98 1011.8
20180620093523 72 314 0.0 0.0 0.00 0.56 0.00 98 1011.9
20180620093007 72 314 0.0 2.0 0.00 0.56 0.00 98 1011.9
20180620092514 72 314 0.0 2.0 0.00 0.56 0.00 98 1011.9
20180620091021 72 326 1.0 2.0 0.00 0.56 0.00 98 1011.6
20180620090523 72 352 1.0 3.0 0.00 0.56 0.00 98 1011.7
20180620090024 72 2 0.0 3.0 0.00 0.56 0.00 98 1011.6
20180620085511 72 343 0.0 0.0 0.00 0.56 0.00 98 1011.6
20180620085010 72 343 0.0 0.0 0.00 0.56 0.00 98 1011.6
20180620084514 72 343 0.0 0.0 0.00 0.56 0.00 98 1011.6
20180620084017 72 343 0.0 0.0 0.00 0.56 0.00 98 1011.6
20180620083524 73 343 0.0 2.0 0.00 0.56 0.00 98 1011.6
20180620083026 73 344 1.0 2.0 0.00 0.56 0.00 98 1011.7
20180620082512 73 2 0.0 0.0 0.00 0.56 0.00 98 1011.8
20180620082012 73 347 0.0 0.0 0.00 0.56 0.00 98 1011.8
20180620081517 73 347 0.0 0.0 0.00 0.56 0.00 98 1011.8
20180620081020 73 348 0.0 0.0 0.00 0.56 0.00 98 1011.7
20180620080522 73 11 0.0 4.0 0.00 0.56 0.00 98 1011.7
20180620080024 73 11 0.0 4.0 0.00 0.56 0.00 98 1011.6
20180620075510 73 337 0.0 2.0 0.00 0.56 0.00 98 1011.7
20180620075010 73 337 1.0 4.0 0.00 0.56 0.00 98 1011.7
20180620074516 73 352 1.0 4.0 0.00 0.56 0.00 98 1011.8
20180620074023 73 322 2.0 3.0 0.00 0.56 0.00 98 1011.6
20180620073525 73 352 1.0 2.0 0.00 0.56 0.00 98 1011.5
20180620073025 73 352 0.0 2.0 0.00 0.56 0.00 98 1011.5
20180620072510 73 330 0.0 3.0 0.00 0.56 0.00 98 1011.6
20180620072027 73 324 1.0 3.0 0.00 0.56 0.00 98 1011.7
20180620071511 73 193 0.0 0.0 0.00 0.56 0.00 98 1011.6
20180620071012 73 193 0.0 0.0 0.00 0.56 0.00 98 1011.6
20180620070515 73 193 0.0 0.0 0.00 0.56 0.00 98 1011.6
20180620070015 73 193 0.0 0.0 0.00 0.56 0.00 98 1011.5
20180620065521 73 193 0.0 0.0 0.00 0.56 0.00 98 1011.3
20180620065017 73 193 0.0 0.0 0.00 0.56 0.00 98 1011.4
20180620064523 73 193 0.0 0.0 0.00 0.56 0.00 98 1011.6
20180620064008 73 193 0.0 0.0 0.00 0.56 0.00 98 1011.5
20180620063512 73 193 0.0 0.0 0.00 0.56 0.00 98 1011.7
20180620063015 73 193 0.0 3.0 0.00 0.56 0.00 98 1011.8
20180620062520 73 193 1.0 3.0 0.00 0.56 0.00 98 1012.0
20180620062015 73 193 1.0 2.0 0.00 0.56 0.00 98 1012.0
20180620061522 73 214 0.0 0.0 0.00 0.56 0.00 98 1012.1
20180620061022 73 214 0.0 0.0 0.00 0.56 0.00 98 1012.1
20180620060525 73 214 0.0 0.0 0.00 0.56 0.00 98 1012.1
20180620060027 73 214 0.0 0.0 0.00 0.56 0.00 98 1012.2
20180620055513 73 214 0.0 0.0 0.00 0.56 0.00 98 1012.2
20180620055013 73 214 0.0 0.0 0.00 0.56 0.00 97 1012.3
20180620054523 73 214 0.0 0.0 0.00 0.56 0.00 98 1012.1
20180620054024 73 214 0.0 0.0 0.00 0.56 0.00 98 1012.1
20180620053526 73 213 0.0 0.0 0.00 0.56 0.00 97 1012.2
20180620053008 73 213 0.0 1.0 0.00 0.56 0.00 98 1012.3
20180620052515 73 213 1.0 1.0 0.00 0.56 0.00 97 1012.4
20180620052013 73 214 0.0 0.0 0.00 0.56 0.00 97 1012.3
20180620051519 73 214 0.0 0.0 0.00 0.56 0.00 97 1012.2
20180620051019 73 214 0.0 0.0 0.00 0.56 0.00 97 1012.1
20180620050521 73 214 0.0 0.0 0.00 0.56 0.00 97 1012.2
20180620050023 73 214 0.0 0.0 0.00 0.56 0.00 98 1012.3
20180620045510 73 214 0.0 0.0 0.00 0.56 0.00 98 1012.4
20180620045012 73 214 0.0 0.0 0.00 0.56 0.00 97 1012.4
20180620044519 73 214 0.0 0.0 0.00 0.56 0.00 97 1012.3
20180620044022 73 214 0.0 0.0 0.00 0.56 0.00 97 1012.2
20180620043527 73 214 0.0 0.0 0.00 0.56 0.00 97 1012.2
20180620043008 74 214 0.0 0.0 0.00 0.56 0.00 97 1012.2
20180620042515 74 214 0.0 0.0 0.00 0.56 0.00 97 1012.1
20180620042015 74 214 0.0 0.0 0.00 0.56 0.00 97 1012.1
20180620041521 74 214 0.0 1.0 0.00 0.56 0.00 97 1012.0
20180620041024 74 214 0.0 2.0 0.00 0.56 0.00 98 1012.0
20180620040509 74 214 0.0 2.0 0.00 0.56 0.00 98 1012.0
20180620040100 74 214 0.0 0.0 0.00 0.56 0.00 97 1012.1
20180620035515 74 214 0.0 0.0 0.00 0.56 0.56 97 1012.1
20180620035014 74 212 0.0 0.0 0.00 0.56 0.56 97 1012.1
20180620034520 74 212 0.0 0.0 0.00 0.56 0.56 97 1012.0
20180620034022 74 212 0.0 0.0 0.00 0.56 0.56 97 1011.9
20180620033526 74 212 0.0 0.0 0.00 0.56 0.56 97 1011.9
20180620033028 74 212 0.0 0.0 0.00 0.56 0.56 97 1012.0
20180620032513 74 212 0.0 2.0 0.00 0.56 0.56 97 1012.0
20180620032012 74 212 0.0 2.0 0.00 0.56 0.56 97 1012.1
20180620031516 74 239 0.0 2.0 0.00 0.56 0.56 97 1012.4
20180620031017 74 335 0.0 0.0 0.00 0.56 0.56 97 1012.5
20180620030521 74 335 0.0 0.0 0.00 0.56 0.56 97 1012.5
20180620030023 75 341 0.0 0.0 0.00 0.56 0.56 97 1012.5
20180620025512 75 341 0.0 0.0 0.00 0.56 0.56 97 1012.6
20180620025008 75 341 0.0 0.0 0.00 0.56 0.56 97 1012.5
20180620024514 75 342 0.0 0.0 0.00 0.56 0.56 97 1012.6
20180620024015 75 342 0.0 0.0 0.00 0.56 0.56 96 1012.5
20180620023519 75 342 0.0 0.0 0.01 0.56 0.56 96 1012.5
20180620023021 75 342 0.0 0.0 0.01 0.56 0.56 96 1012.5
20180620022527 75 342 0.0 0.0 0.01 0.56 0.56 96 1012.4
20180620022025 75 343 0.0 0.0 0.01 0.56 0.56 96 1012.5
20180620021509 75 343 0.0 0.0 0.01 0.56 0.56 97 1012.5
20180620021010 75 343 0.0 0.0 0.01 0.56 0.56 97 1012.4
20180620020514 75 343 0.0 0.0 0.01 0.56 0.56 97 1012.6
20180620020019 75 343 0.0 0.0 0.01 0.56 0.56 97 1012.6
20180620015525 75 278 0.0 2.0 0.01 0.56 0.56 97 1012.6
20180620015024 75 278 0.0 2.0 0.01 0.56 0.56 97 1012.5
20180620014528 75 243 0.0 2.0 0.01 0.56 0.56 96 1012.3
20180620014027 75 240 1.0 2.0 0.01 0.56 0.56 96 1012.3
20180620013526 75 223 0.0 0.0 0.00 0.55 0.55 97 1012.3
20180620013024 75 223 0.0 0.0 0.00 0.55 0.55 97 1012.2
20180620012508 75 222 0.0 0.0 0.00 0.55 0.55 97 1012.3
20180620012027 75 222 0.0 0.0 0.01 0.55 0.55 96 1012.3
20180620011511 75 222 0.0 0.0 0.03 0.55 0.55 96 1012.4
20180620011011 75 222 0.0 0.0 0.04 0.55 0.55 96 1012.4
20180620010514 75 222 0.0 0.0 0.04 0.55 0.55 96 1012.4
20180620010018 75 222 0.0 0.0 0.05 0.55 0.55 96 1012.4
20180620005524 75 222 0.0 0.0 0.05 0.55 0.55 96 1012.4
20180620005022 75 222 0.0 0.0 0.05 0.55 0.55 96 1012.3
20180620004526 75 222 0.0 0.0 0.05 0.55 0.55 96 1012.3
20180620004021 75 222 0.0 2.0 0.05 0.55 0.55 96 1012.3
20180620003519 76 122 0.0 2.0 0.05 0.55 0.55 96 1012.2
20180620003015 76 122 2.0 3.0 0.05 0.55 0.55 96 1012.0
20180620002516 76 119 0.0 4.0 0.05 0.55 0.55 96 1012.0
20180620002029 76 119 2.0 4.0 0.04 0.54 0.54 96 1012.1
20180620001530 76 182 1.0 5.0 0.02 0.52 0.52 96 1012.3
20180620001028 76 175 2.0 5.0 0.02 0.51 0.51 96 1012.3
20180620000526 76 184 2.0 5.0 0.02 0.51 0.51 96 1012.1
20180620000022 76 248 0.0 0.0 0.01 0.50 0.50 95 1011.9
20180619235525 76 147 0.0 2.0 0.02 0.50 0.50 96 1011.7
20180619235024 76 147 0.0 3.0 0.04 0.50 0.50 95 1011.5
20180619234524 76 147 0.0 4.0 0.12 0.50 0.50 95 1011.6
20180619234021 76 202 2.0 4.0 0.29 0.50 0.50 96 1011.8
20180619233521 76 226 1.0 3.0 0.33 0.50 0.50 96 1011.9
20180619233017 76 231 1.0 5.0 0.34 0.50 0.50 95 1011.7
20180619232518 76 190 0.0 5.0 0.34 0.50 0.50 95 1011.7
20180619232013 76 201 0.0 3.0 0.34 0.50 0.50 95 1012.0
20180619231515 76 175 1.0 3.0 0.34 0.50 0.50 95 1011.9
20180619231011 76 95 0.0 3.0 0.33 0.49 0.49 95 1011.6
20180619230530 76 95 2.0 4.0 0.33 0.49 0.49 95 1011.3
20180619230027 76 93 2.0 6.0 0.33 0.49 0.49 95 1011.3
20180619225510 76 137 2.0 8.0 0.32 0.48 0.48 95 1011.3
20180619225024 76 56 2.0 8.0 0.34 0.46 0.46 95 1011.4
20180619224525 76 29 2.0 8.0 0.31 0.37 0.37 95 1011.8
20180619224025 77 23 3.0 6.0 0.19 0.20 0.20 95 1012.0
20180619223525 76 346 3.0 8.0 0.16 0.16 0.16 94 1011.9
20180619223023 77 334 3.0 13.0 0.16 0.16 0.16 94 1011.8
20180619222526 77 330 3.0 13.0 0.16 0.16 0.16 93 1011.3
20180619222020 77 17 5.0 12.0 0.16 0.16 0.16 93 1011.1
20180619221520 77 14 3.0 11.0 0.16 0.16 0.16 93 1010.8
20180619221016 77 59 5.0 17.0 0.16 0.16 0.16 92 1010.8
20180619220516 77 60 4.0 19.0 0.16 0.16 0.16 92 1010.7
20180619220012 78 6 8.0 32.0 0.16 0.16 0.16 91 1010.4
20180619215515 79 335 9.0 32.0 0.15 0.15 0.15 89 1010.0
20180619215029 81 20 13.0 28.0 0.12 0.12 0.12 85 1010.0
20180619214530 84 341 14.0 28.0 0.05 0.05 0.05 80 1010.2
20180619214027 89 39 14.0 25.0 0.01 0.01 0.01 68 1010.1
20180619213511 93 13 3.0 8.0 0.00 0.00 0.00 64 1009.6
20180619213011 93 224 3.0 8.0 0.00 0.00 0.00 63 1008.8
20180619212518 94 232 2.0 8.0 0.00 0.00 0.00 62 1008.7
20180619212015 95 212 3.0 10.0 0.00 0.00 0.00 62 1008.7
20180619211520 96 226 4.0 10.0 0.00 0.00 0.00 60 1008.6
20180619211021 96 205 3.0 10.0 0.00 0.00 0.00 62 1008.5
20180619210524 96 144 2.0 10.0 0.00 0.00 0.00 60 1008.7
20180619210027 96 274 4.0 9.0 0.00 0.00 0.00 60 1008.9
20180619205512 96 272 4.0 9.0 0.00 0.00 0.00 56 1008.9
20180619205010 96 191 4.0 10.0 0.00 0.00 0.00 58 1008.8
20180619204516 96 191 4.0 10.0 0.00 0.00 0.00 58 1008.7
20180619204018 96 251 4.0 11.0 0.00 0.00 0.00 59 1008.6
20180619203524 96 220 4.0 11.0 0.00 0.00 0.00 58 1008.6
20180619203027 96 201 2.0 10.0 0.00 0.00 0.00 60 1008.7
20180619202513 96 227 5.0 10.0 0.00 0.00 0.00 61 1008.8
20180619202011 96 209 1.0 9.0 0.00 0.00 0.00 58 1008.9
20180619201516 96 172 3.0 9.0 0.00 0.00 0.00 56 1009.1
20180619201016 96 216 2.0 7.0 0.00 0.00 0.00 59 1009.2
20180619200518 96 218 1.0 7.0 0.00 0.00 0.00 61 1009.3
20180619200019 95 255 4.0 11.0 0.00 0.00 0.00 57 1009.5
20180619195525 95 191 3.0 11.0 0.00 0.00 0.00 58 1009.6
20180619195024 95 181 3.0 9.0 0.00 0.00 0.00 60 1009.6
20180619194510 94 194 5.0 9.0 0.00 0.00 0.00 59 1009.6
20180619194016 94 288 1.0 8.0 0.00 0.00 0.00 62 1009.7
20180619193521 95 180 3.0 8.0 0.00 0.00 0.00 59 1009.6
20180619193021 95 231 3.0 7.0 0.00 0.00 0.00 58 1009.7
20180619192528 95 195 1.0 11.0 0.00 0.00 0.00 59 1009.8
20180619192027 95 310 4.0 11.0 0.00 0.00 0.00 63 1009.8
20180619191512 95 247 3.0 10.0 0.00 0.00 0.00 59 1009.9
20180619191016 95 194 2.0 8.0 0.00 0.00 0.00 62 1009.8
20180619190520 95 145 2.0 8.0 0.00 0.00 0.00 64 1009.9
20180619190023 95 210 4.0 8.0 0.00 0.00 0.00 59 1010.0
20180619185508 95 183 4.0 7.0 0.00 0.00 0.00 60 1010.0
20180619185027 95 12 2.0 8.0 0.00 0.00 0.00 60 1010.1
20180619184516 95 237 2.0 8.0 0.00 0.00 0.00 59 1010.0
20180619184017 95 244 2.0 7.0 0.00 0.00 0.00 59 1010.1
20180619183520 94 234 3.0 5.0 0.00 0.00 0.00 59 1010.2
20180619183022 94 222 1.0 6.0 0.00 0.00 0.00 62 1010.3
20180619182526 94 289 3.0 8.0 0.00 0.00 0.00 61 1010.4
20180619182027 94 166 4.0 8.0 0.00 0.00 0.00 61 1010.5
20180619181511 95 225 4.0 8.0 0.00 0.00 0.00 60 1010.5
20180619181013 95 119 3.0 7.0 0.00 0.00 0.00 62 1010.6
20180619180517 95 16 4.0 8.0 0.00 0.00 0.00 60 1010.6
20180619180018 95 214 2.0 8.0 0.00 0.00 0.00 61 1010.8
20180619175525 95 244 2.0 6.0 0.00 0.00 0.00 60 1010.8
20180619175024 96 233 3.0 5.0 0.00 0.00 0.00 59 1010.8
20180619174513 95 16 3.0 9.0 0.00 0.00 0.00 62 1010.9
20180619174014 95 343 3.0 8.0 0.00 0.00 0.00 62 1010.9
20180619173518 95 291 2.0 6.0 0.00 0.00 0.00 61 1010.9
20180619173017 95 324 2.0 7.0 0.00 0.00 0.00 59 1011.0
20180619172523 95 209 3.0 7.0 0.00 0.00 0.00 59 1011.1
20180619172021 95 274 2.0 10.0 0.00 0.00 0.00 59 1011.0
20180619171528 95 195 2.0 11.0 0.00 0.00 0.00 61 1011.1
20180619171027 95 172 3.0 11.0 0.00 0.00 0.00 57 1011.0
20180619170509 95 129 3.0 10.0 0.00 0.00 0.00 61 1011.1
20180619170011 95 213 2.0 7.0 0.00 0.00 0.00 60 1011.2
20180619165517 95 306 3.0 9.0 0.00 0.00 0.00 61 1011.2
20180619165020 94 8 3.0 11.0 0.00 0.00 0.00 60 1011.2
20180619164525 95 324 4.0 11.0 0.00 0.00 0.00 59 1011.2
20180619164027 95 94 2.0 5.0 0.00 0.00 0.00 61 1011.2
20180619163509 94 238 3.0 7.0 0.00 0.00 0.00 57 1011.3
20180619163010 94 301 2.0 7.0 0.00 0.00 0.00 60 1011.3
20180619162517 94 232 3.0 6.0 0.00 0.00 0.00 59 1011.4
20180619162020 94 199 2.0 8.0 0.00 0.00 0.00 60 1011.4
20180619161526 94 269 3.0 9.0 0.00 0.00 0.00 61 1011.4
20180619161027 94 234 3.0 9.0 0.00 0.00 0.00 61 1011.4
20180619160511 94 231 2.0 8.0 0.00 0.00 0.00 63 1011.4
20180619160011 93 242 2.0 8.0 0.00 0.00 0.00 61 1011.4
20180619155522 93 242 6.0 10.0 0.00 0.00 0.00 64 1011.5
20180619155020 93 166 3.0 10.0 0.00 0.00 0.00 59 1011.6
20180619154527 93 185 3.0 8.0 0.00 0.00 0.00 60 1011.6
20180619154009 93 131 3.0 11.0 0.00 0.00 0.00 61 1011.6
20180619153513 92 226 4.0 11.0 0.00 0.00 0.00 64 1011.7
20180619153015 92 166 3.0 10.0 0.00 0.00 0.00 65 1011.9
20180619152521 92 183 3.0 12.0 0.00 0.00 0.00 62 1011.8
20180619152020 92 254 5.0 12.0 0.00 0.00 0.00 65 1011.8
20180619151527 93 201 6.0 10.0 0.00 0.00 0.00 60 1011.9
20180619151009 93 239 3.0 8.0 0.00 0.00 0.00 61 1011.9
20180619150513 93 2 2.0 8.0 0.00 0.00 0.00 64 1011.9
20180619150017 92 292 3.0 8.0 0.00 0.00 0.00 61 1012.0
20180619145523 92 230 1.0 6.0 0.00 0.00 0.00 65 1012.0
20180619145022 92 185 3.0 7.0 0.00 0.00 0.00 62 1012.0
20180619144528 92 191 2.0 7.0 0.00 0.00 0.00 63 1012.0
20180619144010 92 168 2.0 7.0 0.00 0.00 0.00 66 1012.0
20180619143515 92 236 3.0 7.0 0.00 0.00 0.00 64 1012.0
20180619143015 92 78 2.0 5.0 0.00 0.00 0.00 66 1012.0
20180619142521 91 141 1.0 5.0 0.00 0.00 0.00 63 1012.0
20180619142023 91 172 0.0 8.0 0.00 0.00 0.00 68 1012.1
20180619141529 91 285 2.0 9.0 0.00 0.00 0.00 68 1012.1
20180619141010 91 226 5.0 9.0 0.00 0.00 0.00 65 1012.2
20180619140518 91 248 2.0 8.0 0.00 0.00 0.00 67 1012.2
20180619140019 90 219 3.0 8.0 0.00 0.00 0.00 66 1012.2
20180619135525 90 54 1.0 7.0 0.00 0.00 0.00 68 1012.1
20180619135025 90 222 4.0 7.0 0.00 0.00 0.00 67 1012.2
20180619134511 90 100 3.0 8.0 0.00 0.00 0.00 68 1012.3
20180619134013 89 212 2.0 8.0 0.00 0.00 0.00 69 1012.3
20180619133518 89 214 3.0 9.0 0.00 0.00 0.00 69 1012.4
20180619133018 89 232 3.0 7.0 0.00 0.00 0.00 70 1012.4
20180619132524 88 190 2.0 6.0 0.00 0.00 0.00 71 1012.4
20180619132025 88 161 2.0 8.0 0.00 0.00 0.00 70 1012.4
20180619131510 88 252 3.0 8.0 0.00 0.00 0.00 73 1012.4
20180619131016 87 252 2.0 6.0 0.00 0.00 0.00 74 1012.5
20180619130521 87 278 2.0 7.0 0.00 0.00 0.00 73 1012.5
20180619130022 86 236 2.0 6.0 0.00 0.00 0.00 76 1012.5
20180619125509 86 149 2.0 6.0 0.00 0.00 0.00 77 1012.5
20180619125027 85 218 3.0 6.0 0.00 0.00 0.00 77 1012.5
20180619124511 84 210 2.0 6.0 0.00 0.00 0.00 79 1012.5
20180619124013 84 233 2.0 5.0 0.00 0.00 0.00 80 1012.5
20180619123518 83 175 2.0 8.0 0.00 0.00 0.00 82 1012.4
20180619123020 82 187 3.0 8.0 0.00 0.00 0.00 81 1012.5
20180619122527 82 296 4.0 8.0 0.00 0.00 0.00 82 1012.5
20180619122028 81 222 2.0 4.0 0.00 0.00 0.00 84 1012.5
20180619121517 81 208 2.0 6.0 0.00 0.00 0.00 84 1012.4
20180619121019 80 231 2.0 6.0 0.00 0.00 0.00 85 1012.5
20180619120523 80 167 3.0 5.0 0.00 0.00 0.00 85 1012.5
20180619120024 80 150 2.0 5.0 0.00 0.00 0.00 86 1012.6
20180619115510 79 254 2.0 7.0 0.00 0.00 0.00 86 1012.6
20180619115009 79 208 2.0 7.0 0.00 0.00 0.00 87 1012.7
20180619114516 78 172 3.0 7.0 0.00 0.00 0.00 87 1012.7
20180619114016 78 179 2.0 8.0 0.00 0.00 0.00 89 1012.7
20180619113520 78 210 2.0 8.0 0.00 0.00 0.00 89 1012.8
20180619113022 77 198 2.0 8.0 0.00 0.00 0.00 89 1012.8
20180619112509 77 206 3.0 8.0 0.00 0.00 0.00 91 1012.8